When you browse on this site, cookies collect data to enhance your experience and personalize the content and advertising you see.
Visit our Privacy Policy to learn more. By continuing to use the site, you agree to this use of cookies and data.
  • In Lithuania
  • List of Countries
  • For 7 days
  • Water Temperature
  • Satellite Maps
  • Weather Map
  • Weather Widgets
  • user-avatar
    Login

    Hourly Weather Ordino

    Today, 16 July, Tuesday

    Time Temperature Precipitation Wind Pressure Humidity
    00:00 +8°C° 0 mm 2 mps 632 mmHg 65%
    01:00 +8°C° 0 mm 2 mps 632 mmHg 59%
    02:00 +9°C° 0 mm 1 mps 632 mmHg 53%
    03:00 +9°C° 0 mm 1 mps 632 mmHg 47%
    04:00 +10°C° 0 mm 1 mps 633 mmHg 47%
    05:00 +11°C° 0 mm 1 mps 633 mmHg 47%
    06:00 +13°C° 0 mm 1 mps 634 mmHg 50%
    07:00 +15°C° 0 mm 1 mps 635 mmHg 46%
    08:00 +19°C° 0 mm 1 mps 636 mmHg 42%
    09:00 +21°C° 0 mm 1 mps 636 mmHg 38%
    10:00 +21°C° 0 mm 2 mps 637 mmHg 38%
    11:00 +23°C° 0 mm 2 mps 637 mmHg 37%
    12:00 +24°C° 0 mm 2 mps 637 mmHg 37%
    13:00 +24°C° 0 mm 2 mps 637 mmHg 37%
    14:00 +24°C° 0 mm 2 mps 637 mmHg 38%
    15:00 +24°C° 0 mm 2 mps 637 mmHg 39%
    16:00 +23°C° 0 mm 2 mps 636 mmHg 45%
    17:00 +22°C° 0 mm 1 mps 636 mmHg 51%
    18:00 +21°C° 0 mm 1 mps 635 mmHg 57%
    19:00 +18°C° 0 mm 1 mps 635 mmHg 65%
    20:00 +15°C° 0 mm 1 mps 634 mmHg 72%
    21:00 +13°C° 0 mm 1 mps 634 mmHg 79%
    22:00 +13°C° 0 mm 1 mps 634 mmHg 79%
    23:00 +13°C° 0 mm 1 mps 633 mmHg 79%

    Tomorrow, 17 July, Wednesday

    Time Temperature Precipitation Wind Pressure Humidity
    00:00 +13°C° 0 mm 1 mps 633 mmHg 79%
    01:00 +13°C° 0 mm 1 mps 633 mmHg 79%
    02:00 +12°C° 0 mm 1 mps 633 mmHg 79%
    03:00 +12°C° 0 mm 1 mps 633 mmHg 79%
    04:00 +13°C° 0 mm 1 mps 633 mmHg 78%
    05:00 +14°C° 0 mm 1 mps 633 mmHg 77%
    06:00 +15°C° 0 mm 1 mps 634 mmHg 76%
    07:00 +18°C° 0 mm 1 mps 634 mmHg 69%
    08:00 +19°C° 0 mm 1 mps 635 mmHg 63%
    09:00 +21°C° 0 mm 1 mps 636 mmHg 56%
    10:00 +21°C° 0.4 mm 1 mps 636 mmHg 58%
    11:00 +21°C° 0.4 mm 1 mps 636 mmHg 60%
    12:00 +21°C° 0.4 mm 1 mps 635 mmHg 62%
    13:00 +21°C° 1 mm 1 mps 635 mmHg 65%
    14:00 +21°C° 1 mm 1 mps 635 mmHg 69%
    15:00 +20°C° 1 mm 1 mps 634 mmHg 73%
    16:00 +19°C° 2.2 mm 1 mps 634 mmHg 79%
    17:00 +18°C° 2.2 mm 1 mps 633 mmHg 84%
    18:00 +16°C° 2.2 mm 1 mps 633 mmHg 90%
    19:00 +15°C° 0.3 mm 1 mps 633 mmHg 91%
    20:00 +14°C° 0.3 mm 1 mps 633 mmHg 92%
    21:00 +13°C° 0.3 mm 2 mps 633 mmHg 94%
    22:00 +13°C° 0 mm 1 mps 633 mmHg 94%
    23:00 +13°C° 0 mm 1 mps 633 mmHg 94%

    Day after tomorrow, 18 July, Thursday

    Time Temperature Precipitation Wind Pressure Humidity
    00:00 +12°C° 0 mm 1 mps 633 mmHg 94%
    01:00 +12°C° 0 mm 1 mps 633 mmHg 94%
    02:00 +12°C° 0 mm 1 mps 633 mmHg 93%
    03:00 +11°C° 0 mm 1 mps 632 mmHg 93%
    04:00 +12°C° 0 mm 1 mps 633 mmHg 92%
    05:00 +13°C° 0 mm 1 mps 633 mmHg 91%
    06:00 +14°C° 0 mm 1 mps 633 mmHg 90%
    07:00 +15°C° 0 mm 1 mps 634 mmHg 84%
    08:00 +18°C° 0 mm 1 mps 635 mmHg 77%
    09:00 +20°C° 0 mm 1 mps 636 mmHg 70%
    10:00 +21°C° 0.3 mm 1 mps 636 mmHg 69%
    11:00 +20°C° 0.3 mm 2 mps 636 mmHg 67%
    12:00 +21°C° 0.3 mm 2 mps 636 mmHg 66%
    13:00 +20°C° 0.6 mm 2 mps 635 mmHg 71%
    14:00 +20°C° 0.6 mm 1 mps 635 mmHg 77%
    15:00 +19°C° 0.6 mm 1 mps 634 mmHg 83%
    16:00 +18°C° 0.4 mm 1 mps 634 mmHg 85%
    17:00 +18°C° 0.4 mm 1 mps 634 mmHg 86%
    18:00 +18°C° 0.4 mm 1 mps 634 mmHg 88%
    19:00 +16°C° 0.1 mm 1 mps 634 mmHg 90%
    20:00 +15°C° 0.1 mm 1 mps 634 mmHg 92%
    21:00 +14°C° 0.1 mm 1 mps 634 mmHg 94%
    22:00 +14°C° 0 mm 1 mps 634 mmHg 95%
    23:00 +13°C° 0 mm 1 mps 634 mmHg 96%

    19 July, Friday

    Time Temperature Precipitation Wind Pressure Humidity
    00:00 +12°C° 0 mm 0 mps 634 mmHg 96%
    01:00 +12°C° 0 mm 0 mps 634 mmHg 97%
    02:00 +12°C° 0 mm 0 mps 634 mmHg 97%
    03:00 +12°C° 0 mm 0 mps 634 mmHg 97%
    04:00 +12°C° 0 mm 0 mps 634 mmHg 95%
    05:00 +13°C° 0 mm 0 mps 634 mmHg 93%
    06:00 +13°C° 0 mm 0 mps 634 mmHg 92%
    07:00 +16°C° 0 mm 1 mps 635 mmHg 79%
    08:00 +19°C° 0 mm 1 mps 636 mmHg 66%
    09:00 +21°C° 0 mm 1 mps 637 mmHg 53%
    10:00 +21°C° 0 mm 2 mps 637 mmHg 50%
    11:00 +24°C° 0 mm 2 mps 637 mmHg 48%
    12:00 +25°C° 0 mm 3 mps 637 mmHg 45%
    13:00 +24°C° 0 mm 2 mps 637 mmHg 47%
    14:00 +24°C° 0 mm 2 mps 636 mmHg 49%
    15:00 +24°C° 0 mm 2 mps 636 mmHg 50%
    16:00 +23°C° 0 mm 2 mps 635 mmHg 54%
    17:00 +22°C° 0 mm 1 mps 635 mmHg 58%
    18:00 +22°C° 0 mm 1 mps 635 mmHg 63%
    19:00 +20°C° 0 mm 1 mps 634 mmHg 68%
    20:00 +18°C° 0 mm 1 mps 634 mmHg 73%
    21:00 +15°C° 0 mm 1 mps 633 mmHg 79%
    22:00 +15°C° 0 mm 1 mps 633 mmHg 77%
    23:00 +14°C° 0 mm 1 mps 633 mmHg 75%

    20 July, Saturday

    Time Temperature Precipitation Wind Pressure Humidity
    00:00 +14°C° 0 mm 1 mps 633 mmHg 74%
    01:00 +14°C° 0 mm 1 mps 632 mmHg 74%
    02:00 +14°C° 0 mm 1 mps 632 mmHg 74%
    03:00 +14°C° 0 mm 2 mps 632 mmHg 74%
    04:00 +15°C° 0.3 mm 2 mps 632 mmHg 76%
    05:00 +15°C° 0.3 mm 2 mps 633 mmHg 79%
    06:00 +16°C° 0.3 mm 2 mps 633 mmHg 81%
    07:00 +17°C° 0 mm 2 mps 634 mmHg 73%
    08:00 +19°C° 0 mm 2 mps 634 mmHg 66%
    09:00 +21°C° 0 mm 2 mps 635 mmHg 59%
    10:00 +23°C° 0 mm 2 mps 636 mmHg 53%
    11:00 +25°C° 0 mm 2 mps 636 mmHg 48%
    12:00 +26°C° 0 mm 2 mps 637 mmHg 43%
    13:00 +26°C° 0.1 mm 3 mps 637 mmHg 45%
    14:00 +26°C° 0.1 mm 3 mps 637 mmHg 46%
    15:00 +25°C° 0.1 mm 3 mps 636 mmHg 48%
    16:00 +24°C° 0.2 mm 2 mps 636 mmHg 56%
    17:00 +23°C° 0.2 mm 2 mps 636 mmHg 64%
    18:00 +22°C° 0.2 mm 1 mps 636 mmHg 71%
    19:00 +20°C° 0 mm 1 mps 636 mmHg 78%
    20:00 +18°C° 0 mm 1 mps 636 mmHg 86%
    21:00 +16°C° 0 mm 1 mps 636 mmHg 93%
    22:00 +15°C° 0 mm 1 mps 636 mmHg 93%
    23:00 +15°C° 0 mm 1 mps 636 mmHg 93%

    21 July, Sunday

    Time Temperature Precipitation Wind Pressure Humidity
    00:00 +15°C° 0 mm 1 mps 636 mmHg 93%
    01:00 +14°C° 0 mm 0 mps 636 mmHg 92%
    02:00 +13°C° 0 mm 0 mps 636 mmHg 92%
    03:00 +13°C° 0 mm 0 mps 635 mmHg 91%
    04:00 +13°C° 0 mm 0 mps 636 mmHg 89%
    05:00 +14°C° 0 mm 0 mps 636 mmHg 86%
    06:00 +15°C° 0 mm 0 mps 637 mmHg 84%
    07:00 +19°C° 0 mm 1 mps 638 mmHg 74%
    08:00 +21°C° 0 mm 1 mps 639 mmHg 64%
    09:00 +23°C° 0 mm 2 mps 639 mmHg 54%
    10:00 +24°C° 0.1 mm 2 mps 640 mmHg 53%
    11:00 +25°C° 0.1 mm 2 mps 640 mmHg 52%
    12:00 +25°C° 0.1 mm 3 mps 640 mmHg 51%
    13:00 +25°C° 0.3 mm 3 mps 640 mmHg 52%
    14:00 +25°C° 0.3 mm 3 mps 640 mmHg 53%
    15:00 +25°C° 0.3 mm 3 mps 639 mmHg 55%
    16:00 +24°C° 0.8 mm 2 mps 639 mmHg 64%
    17:00 +21°C° 0.8 mm 2 mps 638 mmHg 73%
    18:00 +21°C° 0.8 mm 1 mps 638 mmHg 82%
    19:00 +19°C° 0.2 mm 1 mps 638 mmHg 86%
    20:00 +18°C° 0.2 mm 1 mps 637 mmHg 90%
    21:00 +16°C° 0.2 mm 1 mps 637 mmHg 93%
    22:00 +15°C° 0.2 mm 1 mps 637 mmHg 93%
    23:00 +15°C° 0.2 mm 1 mps 637 mmHg 92%
    Show more